PACCTY Weather Reports


Display with metric or nautical units.
time (UTC)temp
F
wind
direction
speed
MPH
gust
MPH
rain 1hr
in
rain 24hr
in
rain mn
in
humidity
%
barometer
mb
20260504004514 67 193 0.0 4.0 0.00 0.00 0.00 69 1005.5
20260504004014 68 172 0.0 4.0 0.00 0.00 0.00 67 1005.5
20260504003516 68 190 1.0 4.0 0.00 0.00 0.00 66 1005.5
20260504003014 69 191 1.0 3.0 0.00 0.00 0.00 66 1005.5
20260504002514 70 252 1.0 3.0 0.00 0.00 0.00 65 1005.5
20260504002014 71 203 0.0 3.0 0.00 0.00 0.00 64 1005.5
20260504001515 71 0 0.0 1.0 0.00 0.00 0.00 63 1005.4
20260504001014 72 0 0.0 3.0 0.00 0.00 0.00 62 1005.4
20260504000514 72 194 0.0 3.0 0.00 0.00 0.00 62 1005.4
20260504000014 73 138 0.0 3.0 0.00 0.00 0.00 60 1005.4
20260503235514 73 242 0.0 3.0 0.00 0.00 0.00 58 1005.5
20260503235014 74 242 0.0 3.0 0.00 0.00 0.00 58 1005.5
20260503234514 75 193 1.0 1.0 0.00 0.00 0.00 56 1005.5
20260503234014 75 193 1.0 3.0 0.00 0.00 0.00 54 1005.6
20260503233514 76 225 0.0 3.0 0.00 0.00 0.00 54 1005.6
20260503233014 77 225 2.0 3.0 0.00 0.00 0.00 53 1005.6
20260503232514 77 196 1.0 4.0 0.00 0.00 0.00 51 1005.7
20260503232014 77 196 1.0 4.0 0.00 0.00 0.00 53 1005.7
20260503231514 76 215 0.0 4.0 0.00 0.00 0.00 54 1005.7
20260503231014 76 212 0.0 3.0 0.00 0.00 0.00 54 1005.8
20260503230515 76 208 1.0 3.0 0.00 0.00 0.00 51 1005.9
20260503230014 76 228 0.0 3.0 0.00 0.00 0.00 53 1006.0
20260503225514 76 224 0.0 3.0 0.00 0.00 0.00 55 1006.2
20260503225014 76 229 2.0 4.0 0.00 0.00 0.00 57 1006.3
20260503224514 75 236 2.0 4.0 0.00 0.00 0.00 53 1006.4
20260503224019 76 242 0.0 4.0 0.00 0.00 0.00 55 1006.4
20260503224013 76 242 0.0 4.0 0.00 0.00 0.00 55 1006.4
20260503223514 76 221 0.0 3.0 0.00 0.00 0.00 53 1006.5
20260503223014 75 208 0.0 2.0 0.00 0.00 0.00 56 1006.6
20260503222516 75 221 0.0 4.0 0.00 0.00 0.00 56 1006.7
20260503222013 75 222 1.0 4.0 0.00 0.00 0.00 56 1006.7
20260503221513 75 205 2.0 4.0 0.00 0.00 0.00 56 1006.8
20260503221014 75 224 2.0 5.0 0.00 0.00 0.00 54 1006.9
20260503220514 75 224 2.0 5.0 0.00 0.00 0.00 58 1007.0
20260503220014 76 215 2.0 5.0 0.00 0.00 0.00 56 1007.1
20260503215514 76 224 1.0 5.0 0.00 0.00 0.00 55 1007.1
20260503214513 75 175 3.0 5.0 0.00 0.00 0.00 57 1007.1
20260503214013 75 225 2.0 5.0 0.00 0.00 0.00 55 1007.2
20260503213514 75 226 1.0 5.0 0.00 0.00 0.00 56 1007.2
20260503213014 75 218 2.0 5.0 0.00 0.00 0.00 57 1007.2
20260503212514 74 228 1.0 5.0 0.00 0.00 0.00 57 1007.2
20260503212013 74 200 3.0 4.0 0.00 0.00 0.00 56 1007.2
20260503211513 74 239 3.0 4.0 0.00 0.00 0.00 58 1007.3
20260503211013 74 225 3.0 3.0 0.00 0.00 0.00 57 1007.3
20260503210513 74 229 2.0 4.0 0.00 0.00 0.00 59 1007.3
20260503210013 73 238 1.0 4.0 0.00 0.00 0.00 61 1007.3
20260503205513 73 238 1.0 4.0 0.00 0.00 0.00 61 1007.4
20260503203514 72 232 3.0 5.0 0.00 0.00 0.00 60 1007.6
20260503203013 72 266 2.0 5.0 0.00 0.00 0.00 61 1007.6
20260503202013 72 180 3.0 4.0 0.00 0.00 0.00 61 1007.7
20260503201513 72 201 0.0 4.0 0.00 0.00 0.00 62 1007.8
20260503200513 72 254 2.0 4.0 0.00 0.00 0.00 61 1007.9
20260503195513 72 245 2.0 5.0 0.00 0.00 0.00 62 1008.1
20260503195016 73 201 2.0 5.0 0.00 0.00 0.00 60 1008.1
20260503194515 73 190 1.0 5.0 0.00 0.00 0.00 61 1008.0
20260503194013 73 222 2.0 3.0 0.00 0.00 0.00 58 1008.1
20260503193513 73 226 0.0 4.0 0.00 0.00 0.00 61 1008.1
20260503193014 74 208 0.0 4.0 0.00 0.00 0.00 58 1008.1
20260503192516 74 233 2.0 4.0 0.00 0.00 0.00 58 1008.1
20260503192013 75 222 2.0 4.0 0.00 0.00 0.00 55 1008.2
20260503191514 76 250 2.0 4.0 0.00 0.00 0.00 56 1008.1
20260503191016 77 253 1.0 4.0 0.00 0.00 0.00 55 1008.1
20260503190516 78 225 0.0 3.0 0.00 0.00 0.00 54 1008.1
20260503190015 78 224 1.0 2.0 0.00 0.00 0.00 53 1008.2
20260503185514 78 218 0.0 1.0 0.00 0.00 0.00 53 1008.2
20260503184513 78 214 0.0 4.0 0.00 0.00 0.00 52 1008.2
20260503183513 78 0 0.0 2.0 0.00 0.00 0.00 54 1008.2
20260503183014 77 0 0.0 0.0 0.00 0.00 0.00 51 1008.2
20260503182513 77 0 0.0 0.0 0.00 0.00 0.00 55 1008.3
20260503182013 77 0 0.0 0.0 0.00 0.00 0.00 55 1008.2
20260503181513 77 0 0.0 0.0 0.00 0.00 0.00 56 1008.3
20260503181013 77 0 0.0 0.0 0.00 0.00 0.00 57 1008.3
20260503180513 76 0 0.0 0.0 0.00 0.00 0.00 58 1008.3
20260503180013 76 0 0.0 0.0 0.00 0.00 0.00 60 1008.3
20260503175513 75 0 0.0 0.0 0.00 0.00 0.00 59 1008.4
20260503175015 74 0 0.0 0.0 0.00 0.00 0.00 64 1008.4
20260503174513 73 0 0.0 0.0 0.00 0.00 0.00 65 1008.3
20260503174013 72 0 0.0 0.0 0.00 0.00 0.00 64 1008.3
20260503173513 72 0 0.0 0.0 0.00 0.00 0.00 71 1008.4
20260503173014 71 0 0.0 0.0 0.00 0.00 0.00 72 1008.4
20260503172513 70 0 0.0 0.0 0.00 0.00 0.00 73 1008.4
20260503172013 70 0 0.0 0.0 0.00 0.00 0.00 74 1008.4
20260503171514 69 0 0.0 0.0 0.00 0.00 0.00 75 1008.4
20260503171013 68 0 0.0 0.0 0.00 0.00 0.00 79 1008.4
20260503170513 68 0 0.0 0.0 0.00 0.00 0.00 80 1008.4
20260503170104 67 0 0.0 0.0 0.00 0.00 0.00 77 1008.4
20260503151013 57 0 0.0 0.0 0.00 0.00 0.00 95 1008.9
20260503131014 53 0 0.0 0.0 0.00 0.00 0.00 96 1008.8
20260503130513 52 0 0.0 0.0 0.00 0.00 0.00 96 1008.8
20260503110513 52 0 0.0 0.0 0.00 0.00 0.00 96 1009.1
20260503090512 51 0 0.0 0.0 0.00 0.00 0.00 96 1010.1
20260503081512 52 0 0.0 0.0 0.00 0.00 0.00 95 1010.5
20260503081014 52 0 0.0 0.0 0.00 0.00 0.00 95 1010.6
20260503080512 51 0 0.0 0.0 0.00 0.00 0.00 95 1010.6
20260503072513 51 0 0.0 0.0 0.00 0.00 0.00 95 1010.6
20260503071512 52 0 0.0 0.0 0.00 0.00 0.00 94 1010.7
20260503071013 52 0 0.0 0.0 0.00 0.00 0.00 94 1010.8
20260503070513 52 0 0.0 0.0 0.00 0.00 0.00 94 1010.9
20260503055015 53 0 0.0 0.0 0.00 0.00 0.00 94 1010.9
20260503054512 53 0 0.0 0.0 0.00 0.00 0.00 93 1010.9
20260503054013 53 0 0.0 0.0 0.00 0.00 0.00 93 1010.9
20260503053514 53 0 0.0 0.0 0.00 0.00 0.00 93 1010.9
20260503053013 53 0 0.0 0.0 0.00 0.00 0.00 93 1010.9
20260503052514 53 0 0.0 0.0 0.00 0.00 0.00 93 1010.9
20260503052012 53 0 0.0 0.0 0.00 0.00 0.00 93 1010.9
20260503051512 53 0 0.0 0.0 0.00 0.00 0.00 93 1011.0
20260503051056 53 0 0.0 0.0 0.00 0.00 0.00 93 1010.9
20260503051012 53 0 0.0 0.0 0.00 0.00 0.00 93 1010.9
20260503050512 53 0 0.0 0.0 0.00 0.00 0.00 93 1011.0
20260503050012 53 0 0.0 0.0 0.00 0.00 0.00 93 1011.0
20260503045512 53 0 0.0 0.0 0.00 0.00 0.00 93 1011.0
20260503045012 53 0 0.0 0.0 0.00 0.00 0.00 93 1011.1
20260503044513 53 0 0.0 0.0 0.00 0.00 0.00 93 1011.1
20260503044014 53 0 0.0 0.0 0.00 0.00 0.00 93 1011.1
20260503042513 54 0 0.0 0.0 0.00 0.00 0.00 92 1011.0
20260503041513 54 0 0.0 0.0 0.00 0.00 0.00 92 1011.0
20260503041014 54 0 0.0 0.0 0.00 0.00 0.00 92 1010.9
20260503040513 54 0 0.0 0.0 0.00 0.00 0.00 91 1010.9
20260503035513 54 0 0.0 0.0 0.00 0.00 0.00 91 1010.8
20260503035013 54 0 0.0 0.0 0.00 0.00 0.00 91 1010.7
20260503034513 55 0 0.0 0.0 0.00 0.00 0.00 91 1010.7
20260503034014 55 0 0.0 0.0 0.00 0.00 0.00 90 1010.7
20260503033515 55 0 0.0 0.0 0.00 0.00 0.00 91 1010.6
20260503033013 55 0 0.0 0.0 0.00 0.00 0.00 91 1010.7
20260503032513 55 0 0.0 0.0 0.00 0.00 0.00 90 1010.7
20260503032015 55 0 0.0 0.0 0.00 0.00 0.00 90 1010.8
20260503031514 55 0 0.0 0.0 0.00 0.00 0.00 90 1010.6
20260503031016 55 0 0.0 1.0 0.00 0.00 0.00 90 101.0
20260503031012 55 0 0.0 1.0 0.00 0.00 0.00 90 1010.7
20260503030513 55 0 0.0 1.0 0.00 0.00 0.00 90 1010.7
20260503030013 56 238 0.0 1.0 0.00 0.00 0.00 90 1010.7
20260503025513 56 205 0.0 1.0 0.00 0.00 0.00 89 1010.7
20260503025013 56 200 0.0 2.0 0.00 0.00 0.00 89 1010.6
20260503024513 56 219 1.0 2.0 0.00 0.00 0.00 89 1010.6
20260503023513 56 226 1.0 2.0 0.00 0.00 0.00 88 1010.4
20260503022513 57 228 0.0 3.0 0.00 0.00 0.00 88 1010.2
20260503021513 57 240 2.0 3.0 0.00 0.00 0.00 87 1010.2
20260503021013 57 238 2.0 2.0 0.00 0.00 0.00 87 1010.2
20260503020013 57 239 1.0 2.0 0.00 0.00 0.00 86 1010.3
20260503015513 57 235 1.0 2.0 0.00 0.00 0.00 86 1010.3
20260503013513 58 232 2.0 3.0 0.00 0.00 0.00 84 1010.5
20260503013013 59 201 1.0 3.0 0.00 0.00 0.00 83 1010.5
20260503012513 59 212 0.0 3.0 0.00 0.00 0.00 82 1010.5
20260503011513 59 211 0.0 2.0 0.00 0.00 0.00 81 1010.6
20260503010513 60 214 1.0 3.0 0.00 0.00 0.00 81 1010.7
20260503005513 60 204 1.0 2.0 0.00 0.00 0.00 81 1010.6
20260503005013 60 238 0.0 2.0 0.00 0.00 0.00 80 1010.6